Tracking 19476 objects as of 18-Jan-2019
HD Live streaming from Space Station
objects crossing your sky now

COSMOS 803

Track COSMOS 803 now!
10-day predictions
COSMOS 803 is classified as:


NORAD ID: 8688
Int'l Code: 1976-014A
Perigee: 451.0 km
Apogee: 483.4 km
Inclination: 65.8 °
Period: 93.8 minutes
Semi major axis: 6838 km
RCS: 1.3519 m2 (large)
Launch date: February 12, 1976
Source: Commonwealth of Independent States (former USSR) (CIS)
Launch site: PLESETSK MISSILE AND SPACE COMPLEX (PKMTR)
aabbcc
Your satellite tracking list
Your tracking list is empty




NASA's NSSDC Master Catalog

Two Line Element Set (TLE):
1  8688U 76014A   19016.69937283  .00000048  00000-0  79418-5 0  9998
2  8688  65.8449  85.4539 0023717 315.9628  43.9626 15.35282381373625
Source of the keplerian elements: AFSPC